SCP
1 0 0 0 0 0 0 0 0 0 0 0 0 0 0 0 0 0 0 0 0 0 0 0 0 0 0 0 0 0 0 0 0 0 0 0 0 0 0 0 0 0 0 0
1 0 0 0 0 0 0 0 0 0 0 0 0 0 0 0 0 0 0 0 0 0 0 0 0 0 0 0 0 0 0 0 0 0 0 0 0 0 0 0 0 0 0 0
0 0 0 0 0 0 0 0 0 0 0 0 0 0 0 0 0 0 0 0 0 0 0 0 0 0 0 0 0 0 0 0 0 0 0 0 0 0 0 0 0 0 0 0
0 0 0 0 0 0 0 0 0 0 0 0 0 0 0 0 0 0 0 0 0 0 0 0 0 0 0 0 0 0 0 0 0 0 0 0 0 0 0 0 0 0 0 0
0 0 0 0 0 0 0 0 0 0 0 0 0 0 0 0 0 0 0 0 0 0 0 0 0 0 0 0 0 0 0 0 0 0 0 0 0 0 0 0 0 0 0 0
0 0 0 0 0 0 0 0 0 0 0 0 0 0 0 0 0 0 0 0 0 0 0 0 0 0 0 0 0 0 0 0 0 0 0 0 0 0 0 0 0 0 0 0
0 0 0 0 0 0 0 0 0 0 0 0 0 0 0 0 0 0 0 0 0 0 0 0 0 0 0 0 0 0 0 0 0 0 0 0 0 0 0 0 0 0 0 0
0 0 0 0 0 0 0 0 0 0 0 0 0 0 0 0 0 0 0 0 0 0 0 0 0 0 0 0 0 0 0 0 0 0 0 0 0 0 0 0 0 0 0 0
0 0 0 0 0 0 0 0 0 0 0 0 0 0 0 0 0 0 0 0 0 0 0 0 0 0 0 0 0 0 0 0 0 0 0 0 0 0 0 0 0 0 0 0
0 0 0 0 0 0 0 0 0 0 0 0 0 0 0 0 0 0 0 0 0 0 0 0 0 0 0 0 0 0 0 0 0 0 0 0 0 0 0 0 0 0 0 0
0 0 0 0 0 0 0 0 0 0 0 0 0 0 0 0 0 0 0 0 0 0 0 0 0 0 0 0 0 0 0 0 0 0 0 0 0 0 0 0 0 0 0 0
0 0 0 0 0 0 0 0 0 0 0 0 0 0 0 0 0 0 0 0 0 0 0 0 0 0 0 0 0 0 0 0 0 0 0 0 0 0 0 0 0 0 0 0
0 0 0 0 0 0 0 0 0 0 0 0 0 0 0 0 0 0 0 0 0 0 0 0 0 0 0 0 0 0 0 0 0 0 0 0 0 0 1 1 0 0 0 0
0 0 0 0 0 0 0 0 0 0 0 0 0 0 0 0 0 0 0 0 0 0 0 0 0 0 0 0 0 0 0 0 0 0 0 0 0 0 0 1 0 0 0 0
0 0 0 0 0 0 0 0 0 0 0 0 0 0 0 0 0 0 0 0 0 0 0 0 0 0 0 0 0 0 0 0 0 0 0 0 0 0 0 0 0 0 0 0
0 0 0 0 0 0 0 0 0 0 0 0 0 0 0 0 0 0 0 0 0 0 0 0 0 0 0 0 0 0 0 0 0 0 0 0 0 0 0 0 0 0 0 0
0 0 0 0 0 0 0 0 0 0 0 0 0 0 0 0 0 0 0 0 0 0 0 0 0 0 0 0 0 0 0 0 0 0 0 0 0 0 0 0 0 0 0 0
0 0 0 0 0 0 0 0 0 0 0 0 0 0 0 0 0 0 0 0 0 0 0 0 0 0 0 0 0 0 0 0 0 0 0 0 0 0 0 0 0 0 0 0
0 0 0 0 0 0 0 0 0 0 0 0 0 0 0 0 0 0 0 0 0 0 0 0 0 0 0 0 0 0 0 0 0 0 0 0 0 0 0 0 0 0 0 0
0 0 0 0 0 0 0 0 0 0 0 0 0 0 0 0 0 0 0 0 0 0 0 0 0 0 0 0 0 0 0 0 0 0 0 0 0 0 0 0 0 0 0 0
0 0 0 0 0 0 0 0 0 0 0 0 0 0 0 0 0 0 0 0 0 0 0 0 0 0 0 0 0 0 0 0 0 0 0 0 0 0 0 0 0 0 0 0
0 0 0 0 0 0 0 0 0 0 0 0 0 0 0 0 0 0 0 0 0 0 0 0 0 0 0 0 0 0 0 0 0 0 0 0 0 0 0 0 0 0 0 0
0 0 0 0 0 0 0 0 0 0 0 0 0 0 0 0 0 0 0 0 0 0 0 0 0 0 0 0 0 0 0 0 0 0 0 0 0 0 0 0 0 0 0 0
0 0 0 0 0 0 0 0 0 0 0 0 0 0 0 0 0 0 0 0 0 0 0 0 0 0 0 0 0 0 0 0 0 0 0 0 0 0 0 0 0 0 0 0
0 0 0 0 0 0 0 0 0 0 0 0 0 0 0 0 0 0 0 0 0 0 0 0 0 0 0 0 0 0 0 0 0 0 0 0 0 0 0 0 0 0 0 0
0 0 0 0 0 0 0 0 0 0 0 0 0 0 0 0 0 0 0 0 0 0 0 0 0 0 0 0 0 0 0 0 0 0 0 0 0 0 0 0 0 0 0 0
Wind_Speed
11 10 16 20 20 12 8 12 12 10 9 11 13 14 13 10 9 8 8 8 8 9 10 10 11 11 11 11 12 14 13 12 10 8 8 7 6 6 5 5 7 8 8 8
11 21 21 16 16 15 13 11 10 7 6 6 8 13 12 12 12 11 11 10 9 9 9 11 12 12 13 13 13 14 14 14 13 10 9 6 6 5 6 5 7 8 9 9
22 15 17 17 16 18 17 14 9 5 3 3 4 10 14 15 14 13 12 11 10 10 11 12 14 14 14 14 15 14 15 15 15 12 8 6 5 4 6 8 8 9 10 10
22 14 18 20 20 19 18 13 9 5 4 4 7 7 9 13 16 17 15 13 12 11 11 12 14 15 16 16 14 14 15 15 16 15 12 13 11 11 11 8 8 9 11 11
15 18 20 24 23 19 10 9 8 7 5 5 7 8 7 8 12 14 15 15 14 13 12 12 15 17 16 16 14 14 14 15 16 16 16 15 13 11 7 7 10 10 10 12
11 11 15 16 15 13 7 6 3 2 3 10 13 10 9 8 10 9 11 12 13 13 13 12 12 13 14 14 14 14 15 16 16 17 17 17 16 13 11 12 11 10 8 10
12 10 9 9 14 12 13 11 6 7 9 11 9 11 11 7 7 8 8 9 10 10 11 11 11 12 14 15 16 16 17 17 17 17 18 19 18 16 16 14 13 11 9 10
16 15 16 12 16 14 18 17 11 10 8 5 7 13 9 5 5 4 4 4 5 6 6 8 9 11 12 14 15 16 17 17 17 17 18 17 17 13 12 14 11 12 11 11
16 13 12 13 10 14 17 17 9 2 2 3 7 7 7 6 4 4 5 6 7 7 6 6 6 7 9 11 13 15 16 16 15 16 16 15 15 15 14 12 12 9 10 9
9 8 12 11 8 10 10 10 6 7 7 6 7 9 7 9 10 10 9 9 8 7 6 6 5 5 5 7 8 10 12 14 14 13 13 12 14 15 13 10 11 11 11 10
6 7 10 12 17 19 13 15 9 7 6 6 5 6 5 10 12 11 9 7 6 5 5 4 4 3 3 3 5 6 8 9 9 11 11 11 12 12 12 11 12 11 10 11
8 6 9 12 6 10 13 13 13 11 8 6 4 6 1 5 7 7 5 4 3 3 2 2 2 2 3 4 5 6 6 7 8 8 8 9 9 10 11 12 11 10 10 10
10 9 10 9 5 6 13 15 17 11 6 5 6 9 3 4 4 5 4 4 4 3 2 2 3 3 4 5 5 5 6 6 6 6 6 7 8 9 10 10 9 9 9 9
11 8 11 15 12 14 15 18 19 16 11 10 13 11 5 6 6 6 6 5 5 5 4 4 4 5 5 5 5 5 6 5 5 5 6 7 7 7 7 7 7 7 8 9
9 9 9 8 9 16 15 20 21 22 17 14 15 17 13 9 8 7 7 7 6 5 5 6 6 5 5 5 5 5 5 5 4 5 5 6 5 4 4 5 5 6 7 8
9 7 7 7 9 15 15 21 23 25 24 21 15 18 15 9 6 6 6 6 6 6 6 6 6 6 6 6 6 6 6 5 5 5 5 4 3 3 3 4 4 5 5 6
9 7 8 7 6 7 15 24 27 25 25 25 25 25 12 8 10 9 7 6 7 7 6 6 6 6 6 6 6 6 6 5 5 5 4 3 3 3 3 3 4 5 5 5
8 7 5 5 8 16 13 15 18 21 23 23 22 18 15 11 8 6 6 6 6 6 6 6 5 5 4 4 4 5 5 5 5 4 4 3 3 3 3 3 4 4 4 5
10 8 5 6 9 8 6 13 23 23 21 21 23 21 14 8 6 10 7 6 7 7 6 5 4 3 2 3 4 4 4 4 4 4 4 4 4 4 4 4 4 3 3 4
10 8 6 6 7 12 12 11 13 11 17 17 20 21 14 9 12 12 6 7 6 4 2 2 0 1 1 1 4 5 4 4 4 4 3 3 4 4 4 4 3 2 3 3
12 9 10 7 6 9 8 9 16 16 18 12 16 16 12 15 15 5 5 4 3 2 1 2 2 2 2 2 4 4 3 2 2 2 3 3 3 3 3 3 2 3 3 3
14 10 11 8 7 11 5 11 15 10 3 6 10 11 11 11 7 4 5 4 3 3 4 4 4 5 5 4 4 4 2 1 2 3 3 3 2 2 2 3 3 3 4 4
11 11 7 9 8 2 5 6 4 2 4 3 4 4 5 5 5 4 5 5 5 5 4 4 5 6 6 6 5 4 3 2 3 3 3 3 2 2 2 3 3 3 3 3
4 4 4 4 5 2 1 1 2 3 2 2 2 2 3 5 6 7 6 6 5 5 5 4 6 6 6 6 7 5 3 3 3 3 3 2 2 2 2 2 2 3 3 3
3 4 5 5 2 0 2 1 1 3 4 5 6 5 4 7 7 7 7 6 6 6 5 5 6 7 6 6 6 6 5 3 4 4 3 3 2 2 1 1 1 1 1 2
1 1 5 6 3 3 2 1 2 3 3 4 6 6 7 6 8 8 8 7 6 7 6 7 7 7 7 6 7 7 6 4 4 4 3 2 2 2 2 2 2 2 1 1
Wind_Direction
177 188 202 202 207 222 214 209 217 220 200 198 222 237 241 236 223 222 226 227 213 202 193 185 184 183 183 185 184 184 183 184 182 183 187 193 196 192 194 192 187 186 186 186
180 212 210 204 207 222 239 236 229 225 198 201 233 246 244 238 231 223 220 220 217 206 192 186 182 183 189 191 190 189 187 185 186 189 189 190 185 195 198 194 194 194 190 187
202 205 201 208 205 210 224 228 227 225 154 208 269 265 244 240 237 233 226 221 217 208 198 189 185 188 191 196 195 195 193 189 188 185 181 182 188 189 195 199 200 202 197 191
215 208 194 205 210 205 219 216 229 228 190 221 202 263 239 228 226 224 221 219 221 217 206 194 188 191 195 199 196 197 195 193 189 186 187 187 193 198 199 195 197 198 199 197
207 204 200 204 207 204 208 188 211 226 228 250 228 254 255 230 232 222 214 213 215 217 212 204 194 195 197 196 195 197 197 198 193 192 193 195 202 204 196 191 194 197 200 200
217 206 209 208 202 197 161 133 140 198 217 239 221 234 259 218 226 222 212 208 209 213 214 211 202 193 195 193 193 194 199 203 199 197 197 200 204 201 195 196 199 199 198 200
204 212 206 192 184 176 163 150 167 191 210 233 191 219 248 214 220 215 210 207 208 211 211 210 204 195 194 192 193 195 199 205 203 201 202 205 207 205 205 203 202 197 197 200
189 198 195 192 190 183 186 180 181 192 203 216 183 221 243 211 202 204 215 225 228 228 220 211 207 200 196 194 194 196 201 207 205 205 207 207 207 208 212 211 206 202 203 201
190 201 185 196 187 177 187 201 211 199 130 207 218 230 245 202 194 211 232 241 242 240 235 227 218 206 198 196 197 199 202 207 208 208 208 209 208 210 213 211 209 205 203 197
177 185 177 182 183 206 189 175 180 198 185 218 237 218 216 183 197 207 217 227 233 235 234 229 222 216 208 204 204 204 206 210 212 211 211 211 210 211 213 210 210 209 203 195
194 167 166 174 192 188 178 186 186 185 208 195 225 241 207 185 186 198 208 214 218 217 216 215 213 206 205 205 206 209 214 215 215 214 215 214 214 211 210 212 213 208 202 196
185 158 180 193 205 200 196 193 188 190 200 212 228 257 94 114 150 166 173 169 168 168 170 186 197 200 213 216 217 218 220 221 221 218 219 218 216 211 210 213 212 204 201 197
164 169 164 173 204 215 208 204 203 208 195 192 206 245 183 124 135 157 170 175 175 177 183 204 215 221 223 219 216 220 224 226 225 221 223 224 220 216 216 213 206 199 197 194
169 192 199 197 189 181 193 201 203 205 212 214 221 230 200 186 189 192 196 198 186 182 190 210 224 224 223 219 217 217 223 220 217 217 221 225 225 222 218 209 199 197 194 194
182 199 214 220 176 174 192 199 202 211 213 215 228 234 231 215 206 204 199 194 195 197 202 214 223 228 225 219 219 217 217 209 202 208 220 228 226 221 212 206 201 196 194 195
185 196 196 228 204 188 197 202 204 211 217 226 237 244 235 233 237 237 222 204 211 218 224 227 227 223 222 221 217 213 211 199 191 205 216 217 213 212 209 202 194 191 191 186
180 175 180 211 202 187 212 205 204 210 215 217 227 236 232 224 230 236 236 224 219 225 230 236 235 226 225 219 208 205 203 185 183 199 205 197 194 201 204 195 188 192 189 183
185 170 167 162 172 215 225 201 206 214 219 219 228 236 231 225 228 232 226 222 228 229 235 243 240 237 225 208 193 185 173 169 178 190 198 190 185 196 196 196 199 193 182 185
187 175 169 179 202 234 238 192 196 205 224 217 226 235 236 234 256 254 230 217 223 226 226 232 235 230 209 191 174 158 161 160 175 197 201 193 185 190 193 200 199 184 176 182
193 185 179 178 200 222 225 191 179 185 240 221 219 229 226 205 233 243 200 206 217 215 221 232 219 95 103 145 138 144 162 169 197 207 202 185 178 187 197 199 183 160 167 176
186 193 199 194 211 244 231 170 150 184 228 209 210 222 210 210 225 213 150 160 148 122 61 52 70 67 48 71 118 137 149 190 199 160 154 158 170 179 180 171 157 150 149 148
185 189 195 190 204 234 206 160 177 203 180 168 196 210 209 215 212 167 141 134 112 89 62 61 75 62 42 47 92 106 94 78 104 120 128 136 143 140 141 146 143 145 148 153
191 191 184 197 214 219 165 179 190 133 154 170 182 203 191 192 183 156 137 119 94 81 68 63 83 75 50 39 58 80 53 62 89 102 111 117 122 120 128 142 148 147 158 164
212 178 162 198 232 206 197 38 32 56 92 84 97 117 126 135 127 118 109 99 89 75 68 71 85 82 63 47 49 50 44 56 85 95 97 103 115 116 119 128 146 160 171 178
198 173 176 206 225 146 268 336 32 50 69 71 59 57 89 116 113 113 106 97 90 80 70 71 79 79 68 57 50 36 29 48 80 86 84 81 81 99 112 106 121 173 189 198
43 161 194 207 187 185 208 343 39 90 83 92 96 75 62 90 106 104 98 89 84 78 72 72 70 70 61 55 45 25 16 30 67 79 74 72 74 74 76 81 50 37 13 298